User: anonymous   Login
Location: Unspecified
(0.0000°N, 0.0000°E)
Time: 01:58:55
(UTC+00:00)
Language:

STARLINK-31326 - Orbit

View from above orbital plane
View from above orbital plane
View from above satellite
View from above satellite

Ground track
Ground track

The orbit is defined by the following mean orbital elements,

1 58877U          26145.52134844 +.00000000 +00000-0 +30663-4 0 00009
2 58877  53.1616 325.5952 0001226  89.4216 270.6926 15.31706150    02
Epoch (UTC): 25 May 2026 12:30:44
Eccentricity: 0.0001226
inclination: 53.1616°
perigee height: 470 km
apogee height: 472 km
right ascension of ascending node: 325.5952°
argument of perigee: 89.4216°
revolutions per day: 15.31706150
mean anomaly at epoch: 270.6926°

The dashed part of the orbit path shows where the satellite is in the earth's shadow,  

DLR